Time,TemperatureF,DewpointF,PressureIn,WindDirection,WindDirectionDegrees,WindSpeedMPH,WindSpeedGustMPH,Humidity,HourlyPrecipIn,Conditions,Clouds,dailyrainin,SoftwareType,DateUTC
2013-09-11 00:11:00,81.0,77.0,30.00,NNW,337,5.0,7.0,89,0.00,,,0.00,TxWx,2013-09-11 04:11:00,
2013-09-11 00:17:00,81.0,78.0,30.00,NW,315,6.0,6.0,90,0.00,,,0.00,TxWx,2013-09-11 04:17:00,
2013-09-11 00:22:00,81.0,78.0,30.01,North,0,3.0,5.0,90,0.00,,,0.00,TxWx,2013-09-11 04:22:00,
2013-09-11 00:27:00,81.0,78.0,30.01,NNE,22,1.0,2.0,90,0.00,,,0.00,TxWx,2013-09-11 04:27:00,
2013-09-11 00:33:00,81.0,78.0,30.01,North,0,3.0,3.0,90,0.00,,,0.00,TxWx,2013-09-11 04:33:00,
2013-09-11 00:38:00,81.0,78.0,30.01,NNW,337,3.0,3.0,90,0.00,,,0.00,TxWx,2013-09-11 04:38:00,
2013-09-11 00:44:00,81.0,78.0,30.01,NNW,337,3.0,3.0,90,0.00,,,0.00,TxWx,2013-09-11 04:44:00,
2013-09-11 00:49:00,81.0,78.0,30.01,NW,315,4.0,4.0,90,0.00,,,0.00,TxWx,2013-09-11 04:49:00,
2013-09-11 00:54:00,81.0,78.0,30.01,NNW,337,3.0,3.0,90,0.00,,,0.00,TxWx,2013-09-11 04:54:00,
2013-09-11 00:59:00,81.0,78.0,30.01,North,0,2.0,3.0,90,0.00,,,0.00,TxWx,2013-09-11 04:59:00,
2013-09-11 01:04:00,81.0,78.0,30.01,North,0,4.0,4.0,90,0.00,,,0.00,TxWx,2013-09-11 05:04:00,
2013-09-11 01:10:00,81.0,78.0,30.01,NW,315,3.0,6.0,90,0.00,,,0.00,TxWx,2013-09-11 05:10:00,
2013-09-11 01:15:00,81.0,78.0,30.01,West,270,5.0,5.0,90,0.00,,,0.00,TxWx,2013-09-11 05:15:00,
2013-09-11 01:20:00,81.0,78.0,30.01,NW,315,3.0,4.0,90,0.00,,,0.00,TxWx,2013-09-11 05:20:00,
2013-09-11 01:25:00,80.0,77.0,30.01,North,0,2.0,2.0,90,0.00,,,0.00,TxWx,2013-09-11 05:25:00,
2013-09-11 01:30:00,80.0,77.0,30.01,NNW,337,3.0,4.0,90,0.00,,,0.00,TxWx,2013-09-11 05:30:00,
2013-09-11 01:36:00,80.0,77.0,30.01,NNW,337,2.0,3.0,90,0.00,,,0.00,TxWx,2013-09-11 05:36:00,
2013-09-11 01:41:00,80.0,77.0,30.01,NNW,337,2.0,2.0,90,0.00,,,0.00,TxWx,2013-09-11 05:41:00,
2013-09-11 01:46:00,80.0,77.0,30.01,NNE,22,3.0,4.0,90,0.00,,,0.00,TxWx,2013-09-11 05:46:00,
2013-09-11 01:51:00,80.0,77.0,30.01,NW,315,3.0,3.0,91,0.00,,,0.00,TxWx,2013-09-11 05:51:00,
2013-09-11 01:56:00,80.0,77.0,30.00,NW,315,2.0,3.0,91,0.00,,,0.00,TxWx,2013-09-11 05:56:00,
2013-09-11 02:01:00,80.0,77.0,30.01,North,0,2.0,2.0,91,0.00,,,0.00,TxWx,2013-09-11 06:01:00,
2013-09-11 02:06:00,80.0,77.0,30.01,North,0,3.0,3.0,91,0.00,,,0.00,TxWx,2013-09-11 06:06:00,
2013-09-11 02:11:00,80.0,77.0,30.01,NNW,337,2.0,3.0,91,0.00,,,0.00,TxWx,2013-09-11 06:11:00,
2013-09-11 02:17:00,80.0,77.0,30.01,NNE,22,1.0,1.0,91,0.00,,,0.00,TxWx,2013-09-11 06:17:00,
2013-09-11 02:22:00,80.0,77.0,30.01,NNE,22,1.0,2.0,91,0.00,,,0.00,TxWx,2013-09-11 06:22:00,
2013-09-11 02:27:00,80.0,77.0,30.01,North,0,4.0,5.0,91,0.00,,,0.00,TxWx,2013-09-11 06:27:00,
2013-09-11 02:32:00,80.0,77.0,30.01,NW,315,5.0,6.0,91,0.00,,,0.00,TxWx,2013-09-11 06:32:00,
2013-09-11 02:37:00,80.0,77.0,30.01,North,0,3.0,3.0,91,0.00,,,0.00,TxWx,2013-09-11 06:37:00,
2013-09-11 02:42:00,80.0,77.0,30.01,North,0,1.0,3.0,91,0.00,,,0.00,TxWx,2013-09-11 06:42:00,
2013-09-11 02:47:00,80.0,77.0,30.01,NNW,337,2.0,4.0,91,0.00,,,0.00,TxWx,2013-09-11 06:47:00,
2013-09-11 02:51:00,91.0,82.0,30.02,NNE,22,3.0,4.0,74,0.00,,,0.00,TxWx,2013-09-11 06:51:00,
2013-09-11 02:52:00,80.0,77.0,30.01,NNE,22,2.0,3.0,91,0.00,,,0.00,TxWx,2013-09-11 06:52:00,
2013-09-11 02:54:00,91.0,82.0,30.02,NNW,337,5.0,8.0,74,0.00,,,0.00,TxWx,2013-09-11 06:54:00,
2013-09-11 02:55:00,91.0,81.0,30.02,NW,315,6.0,6.0,74,0.00,,,0.00,TxWx,2013-09-11 06:55:00,
2013-09-11 02:56:00,91.0,81.0,30.02,NNW,337,7.0,8.0,74,0.00,,,0.00,TxWx,2013-09-11 06:56:00,
2013-09-11 02:57:00,80.0,77.0,30.01,North,0,3.0,4.0,92,0.00,,,0.00,TxWx,2013-09-11 06:57:00,
2013-09-11 02:58:00,91.0,81.0,30.02,North,0,5.0,5.0,74,0.00,,,0.00,TxWx,2013-09-11 06:58:00,
2013-09-11 02:59:00,91.0,81.0,30.02,NNW,337,1.0,3.0,74,0.00,,,0.00,TxWx,2013-09-11 06:59:00,
2013-09-11 03:00:00,91.0,81.0,30.02,East,90,5.0,5.0,74,0.00,,,0.00,TxWx,2013-09-11 07:00:00,
2013-09-11 03:01:00,91.0,81.0,30.02,NNE,22,4.0,4.0,74,0.00,,,0.00,TxWx,2013-09-11 07:01:00,
2013-09-11 03:02:00,80.0,77.0,30.01,NNW,337,10.0,10.0,92,0.00,,,0.00,TxWx,2013-09-11 07:02:00,
2013-09-11 03:08:00,80.0,77.0,30.01,NNW,337,3.0,3.0,92,0.00,,,0.00,TxWx,2013-09-11 07:08:00,
2013-09-11 03:13:00,80.0,77.0,30.01,NNW,337,5.0,6.0,92,0.00,,,0.00,TxWx,2013-09-11 07:13:00,
2013-09-11 03:18:00,80.0,77.0,30.01,North,0,2.0,3.0,92,0.00,,,0.00,TxWx,2013-09-11 07:18:00,
2013-09-11 03:23:00,80.0,77.0,30.01,NNE,22,3.0,3.0,92,0.00,,,0.00,TxWx,2013-09-11 07:23:00,
2013-09-11 03:28:00,80.0,77.0,30.01,NE,45,2.0,2.0,92,0.00,,,0.00,TxWx,2013-09-11 07:28:00,
2013-09-11 03:33:00,80.0,77.0,30.01,ENE,67,2.0,2.0,92,0.00,,,0.00,TxWx,2013-09-11 07:33:00,
2013-09-11 03:38:00,79.0,77.0,30.01,NW,315,4.0,5.0,93,0.00,,,0.00,TxWx,2013-09-11 07:38:00,
2013-09-11 03:43:00,79.0,77.0,30.00,West,270,2.0,3.0,93,0.00,,,0.00,TxWx,2013-09-11 07:43:00,
2013-09-11 03:48:00,79.0,77.0,30.01,NW,315,3.0,3.0,93,0.00,,,0.00,TxWx,2013-09-11 07:48:00,
2013-09-11 03:53:00,80.0,78.0,30.00,North,0,1.0,2.0,93,0.00,,,0.00,TxWx,2013-09-11 07:53:00,
2013-09-11 03:59:00,80.0,78.0,30.00,North,0,2.0,3.0,93,0.00,,,0.00,TxWx,2013-09-11 07:59:00,
2013-09-11 04:04:00,80.0,78.0,30.01,NW,315,1.0,2.0,93,0.00,,,0.00,TxWx,2013-09-11 08:04:00,
2013-09-11 04:09:00,80.0,78.0,30.00,NNE,22,3.0,3.0,93,0.00,,,0.00,TxWx,2013-09-11 08:09:00,
2013-09-11 04:14:00,80.0,78.0,30.01,WNW,292,3.0,5.0,93,0.00,,,0.00,TxWx,2013-09-11 08:14:00,
2013-09-11 04:19:00,80.0,78.0,30.01,WSW,247,2.0,2.0,93,0.00,,,0.00,TxWx,2013-09-11 08:19:00,
2013-09-11 04:24:00,80.0,78.0,30.01,WNW,292,1.0,1.0,93,0.00,,,0.00,TxWx,2013-09-11 08:24:00,
2013-09-11 04:29:00,80.0,78.0,30.01,SSW,202,1.0,1.0,93,0.00,,,0.00,TxWx,2013-09-11 08:29:00,
2013-09-11 04:35:00,80.0,78.0,30.01,WSW,247,3.0,3.0,93,0.00,,,0.00,TxWx,2013-09-11 08:35:00,
2013-09-11 04:40:00,80.0,78.0,30.01,SW,225,3.0,3.0,93,0.00,,,0.00,TxWx,2013-09-11 08:40:00,
2013-09-11 04:45:00,80.0,78.0,30.01,South,180,1.0,2.0,93,0.00,,,0.00,TxWx,2013-09-11 08:45:00,
2013-09-11 04:50:00,80.0,78.0,30.01,NW,315,3.0,4.0,93,0.00,,,0.00,TxWx,2013-09-11 08:50:00,
2013-09-11 04:55:00,80.0,78.0,30.01,WSW,247,0.0,1.0,93,0.00,,,0.00,TxWx,2013-09-11 08:55:00,
2013-09-11 05:00:00,79.0,77.0,30.01,North,0,2.0,2.0,93,0.00,,,0.00,TxWx,2013-09-11 09:00:00,
2013-09-11 05:05:00,79.0,77.0,30.02,NE,45,2.0,2.0,93,0.00,,,0.00,TxWx,2013-09-11 09:05:00,
2013-09-11 05:11:00,79.0,77.0,30.01,NE,45,1.0,2.0,93,0.00,,,0.00,TxWx,2013-09-11 09:11:00,
2013-09-11 05:16:00,79.0,77.0,30.02,NNE,22,0.0,1.0,93,0.00,,,0.00,TxWx,2013-09-11 09:16:00,
2013-09-11 05:21:00,79.0,77.0,30.02,NNW,337,1.0,1.0,93,0.00,,,0.00,TxWx,2013-09-11 09:21:00,
2013-09-11 05:26:00,79.0,77.0,30.02,NE,45,1.0,1.0,93,0.00,,,0.00,TxWx,2013-09-11 09:26:00,
2013-09-11 05:31:00,79.0,77.0,30.02,NNE,22,1.0,2.0,93,0.00,,,0.00,TxWx,2013-09-11 09:31:00,
2013-09-11 05:37:00,78.0,76.0,30.02,North,0,1.0,1.0,93,0.00,,,0.00,TxWx,2013-09-11 09:37:00,
2013-09-11 05:42:00,78.0,76.0,30.02,NE,45,1.0,1.0,93,0.00,,,0.00,TxWx,2013-09-11 09:42:00,
2013-09-11 05:47:00,78.0,76.0,30.02,NNW,337,1.0,1.0,93,0.00,,,0.00,TxWx,2013-09-11 09:47:00,
2013-09-11 05:52:00,78.0,76.0,30.02,WNW,292,2.0,2.0,93,0.00,,,0.00,TxWx,2013-09-11 09:52:00,
2013-09-11 05:57:00,78.0,76.0,30.02,WNW,292,2.0,2.0,93,0.00,,,0.00,TxWx,2013-09-11 09:57:00,
2013-09-11 06:03:00,78.0,76.0,30.02,NW,315,2.0,3.0,94,0.00,,,0.00,TxWx,2013-09-11 10:03:00,
2013-09-11 06:08:00,78.0,76.0,30.03,West,270,0.0,1.0,94,0.00,,,0.00,TxWx,2013-09-11 10:08:00,
2013-09-11 06:13:00,78.0,76.0,30.03,North,0,2.0,2.0,94,0.00,,,0.00,TxWx,2013-09-11 10:13:00,
2013-09-11 06:19:00,78.0,76.0,30.03,North,0,1.0,1.0,94,0.00,,,0.00,TxWx,2013-09-11 10:19:00,
2013-09-11 06:24:00,78.0,76.0,30.03,North,0,1.0,1.0,94,0.00,,,0.00,TxWx,2013-09-11 10:24:00,
2013-09-11 06:29:00,77.0,75.0,30.03,NW,315,1.0,1.0,94,0.00,,,0.00,TxWx,2013-09-11 10:29:00,
2013-09-11 06:34:00,77.0,75.0,30.03,NNW,337,1.0,1.0,94,0.00,,,0.00,TxWx,2013-09-11 10:34:00,
2013-09-11 06:39:00,77.0,75.0,30.03,NNW,337,1.0,1.0,94,0.00,,,0.00,TxWx,2013-09-11 10:39:00,
2013-09-11 06:44:00,77.0,75.0,30.03,NNW,337,1.0,1.0,94,0.00,,,0.00,TxWx,2013-09-11 10:44:00,
2013-09-11 06:49:00,77.0,75.0,30.04,NNE,22,1.0,1.0,94,0.00,,,0.00,TxWx,2013-09-11 10:49:00,
2013-09-11 06:54:00,77.0,75.0,30.04,NNE,22,1.0,1.0,95,0.00,,,0.00,TxWx,2013-09-11 10:54:00,
2013-09-11 06:59:00,77.0,75.0,30.04,NNW,337,1.0,1.0,95,0.00,,,0.00,TxWx,2013-09-11 10:59:00,
2013-09-11 07:05:00,77.0,75.0,30.04,NNW,337,2.0,2.0,95,0.00,,,0.00,TxWx,2013-09-11 11:05:00,
2013-09-11 07:10:00,77.0,75.0,30.04,NE,45,1.0,2.0,95,0.00,,,0.00,TxWx,2013-09-11 11:10:00,
2013-09-11 07:15:00,77.0,75.0,30.04,North,0,1.0,1.0,95,0.00,,,0.00,TxWx,2013-09-11 11:15:00,
2013-09-11 07:20:00,77.0,75.0,30.04,NNE,22,1.0,2.0,95,0.00,,,0.00,TxWx,2013-09-11 11:20:00,
2013-09-11 07:25:00,78.0,76.0,30.04,North,0,1.0,1.0,95,0.00,,,0.00,TxWx,2013-09-11 11:25:00,
2013-09-11 07:30:00,78.0,76.0,30.04,North,0,1.0,1.0,95,0.00,,,0.00,TxWx,2013-09-11 11:30:00,
2013-09-11 07:35:00,78.0,76.0,30.04,North,0,1.0,1.0,95,0.00,,,0.00,TxWx,2013-09-11 11:35:00,
2013-09-11 07:40:00,78.0,77.0,30.04,NW,315,1.0,1.0,96,0.00,,,0.00,TxWx,2013-09-11 11:40:00,
2013-09-11 07:46:00,78.0,77.0,30.04,NE,45,1.0,1.0,96,0.00,,,0.00,TxWx,2013-09-11 11:46:00,
2013-09-11 07:51:00,79.0,78.0,30.05,WNW,292,2.0,2.0,96,0.00,,,0.00,TxWx,2013-09-11 11:51:00,
2013-09-11 07:56:00,79.0,78.0,30.04,NNW,337,0.0,1.0,96,0.00,,,0.00,TxWx,2013-09-11 11:56:00,
2013-09-11 08:01:00,79.0,78.0,30.04,North,0,1.0,1.0,96,0.00,,,0.00,TxWx,2013-09-11 12:01:00,
2013-09-11 08:06:00,79.0,78.0,30.04,North,0,3.0,3.0,96,0.00,,,0.00,TxWx,2013-09-11 12:06:00,
2013-09-11 08:11:00,80.0,79.0,30.04,North,0,3.0,3.0,96,0.00,,,0.00,TxWx,2013-09-11 12:11:00,
2013-09-11 08:16:00,80.0,79.0,30.04,NNW,337,1.0,1.0,96,0.00,,,0.00,TxWx,2013-09-11 12:16:00,
2013-09-11 08:21:00,80.0,79.0,30.04,NW,315,1.0,1.0,96,0.00,,,0.00,TxWx,2013-09-11 12:21:00,
2013-09-11 08:27:00,80.0,79.0,30.04,North,0,2.0,3.0,96,0.00,,,0.00,TxWx,2013-09-11 12:27:00,
2013-09-11 08:32:00,81.0,80.0,30.04,North,0,3.0,3.0,96,0.00,,,0.00,TxWx,2013-09-11 12:32:00,
2013-09-11 08:37:00,81.0,80.0,30.04,North,0,2.0,2.0,96,0.00,,,0.00,TxWx,2013-09-11 12:37:00,
2013-09-11 08:42:00,81.0,80.0,30.04,NW,315,1.0,2.0,96,0.00,,,0.00,TxWx,2013-09-11 12:42:00,
2013-09-11 08:47:00,81.0,80.0,30.04,NW,315,3.0,3.0,96,0.00,,,0.00,TxWx,2013-09-11 12:47:00,
2013-09-11 08:52:00,82.0,81.0,30.04,North,0,3.0,3.0,96,0.00,,,0.00,TxWx,2013-09-11 12:52:00,
2013-09-11 08:57:00,82.0,81.0,30.04,NNE,22,2.0,2.0,96,0.00,,,0.00,TxWx,2013-09-11 12:57:00,
2013-09-11 09:02:00,82.0,80.0,30.04,NNE,22,3.0,4.0,95,0.00,,,0.00,TxWx,2013-09-11 13:02:00,
2013-09-11 09:07:00,83.0,81.0,30.04,NNE,22,3.0,3.0,94,0.00,,,0.00,TxWx,2013-09-11 13:07:00,
2013-09-11 09:12:00,83.0,81.0,30.04,East,90,3.0,3.0,94,0.00,,,0.00,TxWx,2013-09-11 13:12:00,
2013-09-11 09:17:00,83.0,81.0,30.04,NNW,337,1.0,2.0,93,0.00,,,0.00,TxWx,2013-09-11 13:17:00,
2013-09-11 09:22:00,84.0,81.0,30.04,NE,45,5.0,5.0,92,0.00,,,0.00,TxWx,2013-09-11 13:22:00,
2013-09-11 09:28:00,84.0,81.0,30.04,NW,315,2.0,3.0,91,0.00,,,0.00,TxWx,2013-09-11 13:28:00,
2013-09-11 09:33:00,84.0,81.0,30.04,North,0,3.0,3.0,91,0.00,,,0.00,TxWx,2013-09-11 13:33:00,
2013-09-11 09:38:00,84.0,81.0,30.04,North,0,4.0,5.0,90,0.00,,,0.00,TxWx,2013-09-11 13:38:00,
2013-09-11 09:43:00,84.0,80.0,30.04,North,0,4.0,4.0,89,0.00,,,0.00,TxWx,2013-09-11 13:43:00,
2013-09-11 09:48:00,85.0,81.0,30.04,North,0,3.0,5.0,88,0.00,,,0.00,TxWx,2013-09-11 13:48:00,
2013-09-11 09:53:00,85.0,81.0,30.03,NNW,337,2.0,3.0,87,0.00,,,0.00,TxWx,2013-09-11 13:53:00,
2013-09-11 09:58:00,86.0,81.0,30.04,NNE,22,3.0,3.0,87,0.00,,,0.00,TxWx,2013-09-11 13:58:00,
2013-09-11 10:03:00,86.0,81.0,30.04,NW,315,3.0,3.0,86,0.00,,,0.00,TxWx,2013-09-11 14:03:00,
2013-09-11 10:08:00,86.0,81.0,30.04,NE,45,3.0,5.0,85,0.00,,,0.00,TxWx,2013-09-11 14:08:00,
2013-09-11 10:13:00,86.0,80.0,30.04,NNW,337,4.0,4.0,84,0.00,,,0.00,TxWx,2013-09-11 14:13:00,
2013-09-11 10:19:00,86.0,80.0,30.04,NE,45,6.0,6.0,83,0.00,,,0.00,TxWx,2013-09-11 14:19:00,
2013-09-11 10:24:00,86.0,80.0,30.04,ENE,67,2.0,4.0,83,0.00,,,0.00,TxWx,2013-09-11 14:24:00,
2013-09-11 10:29:00,86.0,80.0,30.04,NNE,22,2.0,3.0,84,0.00,,,0.00,TxWx,2013-09-11 14:29:00,
2013-09-11 10:34:00,86.0,80.0,30.03,NE,45,2.0,3.0,84,0.00,,,0.00,TxWx,2013-09-11 14:34:00,
2013-09-11 10:39:00,87.0,81.0,30.03,North,0,1.0,2.0,84,0.00,,,0.00,TxWx,2013-09-11 14:39:00,
2013-09-11 10:44:00,87.0,81.0,30.03,NNE,22,3.0,3.0,83,0.00,,,0.00,TxWx,2013-09-11 14:44:00,
2013-09-11 10:49:00,88.0,82.0,30.03,NNW,337,3.0,4.0,83,0.00,,,0.00,TxWx,2013-09-11 14:49:00,
2013-09-11 10:54:00,89.0,83.0,30.03,NNW,337,3.0,3.0,82,0.00,,,0.00,TxWx,2013-09-11 14:54:00,
2013-09-11 10:59:00,89.0,82.0,30.03,NNW,337,5.0,5.0,80,0.00,,,0.00,TxWx,2013-09-11 14:59:00,
2013-09-11 11:04:00,90.0,82.0,30.02,NW,315,1.0,1.0,79,0.00,,,0.00,TxWx,2013-09-11 15:04:00,
2013-09-11 11:09:00,90.0,82.0,30.02,WNW,292,3.0,6.0,78,0.00,,,0.00,TxWx,2013-09-11 15:09:00,
2013-09-11 11:14:00,90.0,81.0,30.02,North,0,6.0,7.0,76,0.00,,,0.00,TxWx,2013-09-11 15:14:00,
2013-09-11 11:19:00,90.0,82.0,30.02,NW,315,4.0,4.0,77,0.00,,,0.00,TxWx,2013-09-11 15:19:00,
2013-09-11 11:24:00,90.0,82.0,30.02,NW,315,5.0,5.0,77,0.00,,,0.00,TxWx,2013-09-11 15:24:00,
2013-09-11 11:29:00,90.0,81.0,30.02,WNW,292,6.0,8.0,76,0.00,,,0.00,TxWx,2013-09-11 15:29:00,
2013-09-11 11:35:00,90.0,81.0,30.02,WNW,292,10.0,13.0,75,0.00,,,0.00,TxWx,2013-09-11 15:35:00,
2013-09-11 11:40:00,90.0,81.0,30.02,ENE,67,6.0,6.0,75,0.00,,,0.00,TxWx,2013-09-11 15:40:00,
2013-09-11 11:45:00,90.0,81.0,30.02,WNW,292,4.0,6.0,74,0.00,,,0.00,TxWx,2013-09-11 15:45:00,
2013-09-11 11:50:00,91.0,82.0,30.02,NNE,22,3.0,5.0,74,0.00,,,0.00,TxWx,2013-09-11 15:50:00,
2013-09-11 11:55:00,91.0,82.0,30.02,NNW,337,6.0,7.0,74,0.00,,,0.00,TxWx,2013-09-11 15:55:00,
2013-09-11 12:00:00,91.0,81.0,30.02,NNE,22,3.0,3.0,74,0.00,,,0.00,TxWx,2013-09-11 16:00:00,
2013-09-11 12:05:00,91.0,81.0,30.01,NNE,22,2.0,3.0,73,0.00,,,0.00,TxWx,2013-09-11 16:05:00,
2013-09-11 12:11:00,92.0,82.0,30.01,NNW,337,3.0,3.0,73,0.00,,,0.00,TxWx,2013-09-11 16:11:00,
2013-09-11 12:16:00,92.0,82.0,30.01,NNE,22,6.0,8.0,72,0.00,,,0.00,TxWx,2013-09-11 16:16:00,
2013-09-11 12:21:00,92.0,81.0,30.01,WNW,292,5.0,7.0,71,0.00,,,0.00,TxWx,2013-09-11 16:21:00,
2013-09-11 12:26:00,92.0,81.0,30.01,NNE,22,2.0,3.0,71,0.00,,,0.00,TxWx,2013-09-11 16:26:00,
2013-09-11 12:32:00,92.0,81.0,30.00,NNW,337,7.0,8.0,71,0.00,,,0.00,TxWx,2013-09-11 16:32:00,
2013-09-11 12:37:00,92.0,81.0,30.00,NNW,337,6.0,7.0,71,0.00,,,0.00,TxWx,2013-09-11 16:37:00,
2013-09-11 12:42:00,93.0,82.0,30.00,NW,315,5.0,6.0,70,0.00,,,0.00,TxWx,2013-09-11 16:42:00,
2013-09-11 12:47:00,93.0,82.0,30.00,NNE,22,5.0,5.0,71,0.00,,,0.00,TxWx,2013-09-11 16:47:00,
2013-09-11 12:52:00,93.0,82.0,30.00,North,0,5.0,6.0,70,0.00,,,0.00,TxWx,2013-09-11 16:52:00,
2013-09-11 12:57:00,93.0,82.0,30.00,NNW,337,3.0,3.0,70,0.00,,,0.00,TxWx,2013-09-11 16:57:00,
2013-09-11 13:02:00,93.0,81.0,29.99,NNE,22,5.0,6.0,70,0.00,,,0.00,TxWx,2013-09-11 17:02:00,
2013-09-11 13:08:00,93.0,81.0,29.99,NNW,337,3.0,4.0,70,0.00,,,0.00,TxWx,2013-09-11 17:08:00,
2013-09-11 13:13:00,94.0,83.0,29.99,North,0,5.0,5.0,70,0.00,,,0.00,TxWx,2013-09-11 17:13:00,
2013-09-11 13:18:00,94.0,83.0,29.98,NW,315,3.0,3.0,70,0.00,,,0.00,TxWx,2013-09-11 17:18:00,
2013-09-11 13:23:00,94.0,82.0,29.98,ENE,67,1.0,2.0,69,0.00,,,0.00,TxWx,2013-09-11 17:23:00,
2013-09-11 13:28:00,94.0,82.0,29.98,North,0,4.0,6.0,69,0.00,,,0.00,TxWx,2013-09-11 17:28:00,
2013-09-11 13:33:00,95.0,83.0,29.97,NW,315,4.0,5.0,69,0.00,,,0.00,TxWx,2013-09-11 17:33:00,
2013-09-11 13:38:00,95.0,83.0,29.97,NNE,22,3.0,5.0,68,0.00,,,0.00,TxWx,2013-09-11 17:38:00,
2013-09-11 13:43:00,95.0,82.0,29.97,NNE,22,5.0,5.0,68,0.00,,,0.00,TxWx,2013-09-11 17:43:00,
2013-09-11 13:48:00,95.0,82.0,29.97,NNW,337,5.0,5.0,68,0.00,,,0.00,TxWx,2013-09-11 17:48:00,
2013-09-11 13:53:00,95.0,83.0,29.97,NNE,22,3.0,4.0,68,0.00,,,0.00,TxWx,2013-09-11 17:53:00,
2013-09-11 13:58:00,95.0,82.0,29.97,NW,315,5.0,6.0,67,0.00,,,0.00,TxWx,2013-09-11 17:58:00,
2013-09-11 14:03:00,95.0,82.0,29.97,NNW,337,3.0,3.0,67,0.00,,,0.00,TxWx,2013-09-11 18:03:00,
2013-09-11 14:09:00,95.0,82.0,29.96,NNW,337,3.0,8.0,66,0.00,,,0.00,TxWx,2013-09-11 18:09:00,
2013-09-11 14:14:00,95.0,82.0,29.96,NNW,337,3.0,3.0,67,0.00,,,0.00,TxWx,2013-09-11 18:14:00,
2013-09-11 14:19:00,96.0,83.0,29.96,NW,315,4.0,5.0,67,0.00,,,0.00,TxWx,2013-09-11 18:19:00,
2013-09-11 14:24:00,96.0,83.0,29.96,NNE,22,5.0,7.0,67,0.00,,,0.00,TxWx,2013-09-11 18:24:00,
2013-09-11 14:29:00,96.0,83.0,29.96,NNE,22,3.0,5.0,66,0.00,,,0.00,TxWx,2013-09-11 18:29:00,
2013-09-11 14:34:00,96.0,83.0,29.95,NW,315,3.0,3.0,66,0.00,,,0.00,TxWx,2013-09-11 18:34:00,
2013-09-11 14:39:00,96.0,83.0,29.95,WNW,292,3.0,3.0,66,0.00,,,0.00,TxWx,2013-09-11 18:39:00,
2013-09-11 14:44:00,96.0,82.0,29.95,NNW,337,5.0,6.0,64,0.00,,,0.00,TxWx,2013-09-11 18:44:00,
2013-09-11 14:50:00,97.0,82.0,29.95,NNW,337,2.0,3.0,64,0.00,,,0.00,TxWx,2013-09-11 18:50:00,
2013-09-11 14:55:00,97.0,82.0,29.95,North,0,3.0,5.0,63,0.00,,,0.00,TxWx,2013-09-11 18:55:00,
2013-09-11 15:00:00,97.0,82.0,29.95,ENE,67,3.0,4.0,62,0.00,,,0.00,TxWx,2013-09-11 19:00:00,
2013-09-11 15:01:00,74.0,73.0,29.94,NNE,22,1.0,2.0,96,0.00,,,0.00,TxWx,2013-09-11 19:01:00,
2013-09-11 15:02:00,74.0,73.0,29.93,NW,315,2.0,3.0,96,0.00,,,0.00,TxWx,2013-09-11 19:02:00,
2013-09-11 15:03:00,74.0,73.0,29.93,WNW,292,2.0,2.0,96,0.00,,,0.00,TxWx,2013-09-11 19:03:00,
2013-09-11 15:04:00,74.0,73.0,29.93,NW,315,3.0,3.0,96,0.00,,,0.00,TxWx,2013-09-11 19:04:00,
2013-09-11 15:05:00,97.0,81.0,29.94,North,0,5.0,6.0,61,0.00,,,0.00,TxWx,2013-09-11 19:05:00,
2013-09-11 15:06:00,74.0,73.0,29.92,WNW,292,3.0,3.0,96,0.00,,,0.00,TxWx,2013-09-11 19:06:00,
2013-09-11 15:07:00,74.0,73.0,29.92,NNW,337,1.0,2.0,96,0.00,,,0.00,TxWx,2013-09-11 19:07:00,
2013-09-11 15:08:00,74.0,73.0,29.92,NNE,22,1.0,2.0,96,0.00,,,0.00,TxWx,2013-09-11 19:08:00,
2013-09-11 15:09:00,74.0,73.0,29.92,NE,45,2.0,2.0,96,0.00,,,0.00,TxWx,2013-09-11 19:09:00,
2013-09-11 15:10:00,74.0,73.0,29.93,NE,45,2.0,3.0,96,0.00,,,0.00,TxWx,2013-09-11 19:10:00,
2013-09-11 15:11:00,97.0,81.0,29.94,NW,315,3.0,5.0,61,0.00,,,0.00,TxWx,2013-09-11 19:11:00,
2013-09-11 15:12:00,74.0,73.0,29.93,NNE,22,2.0,3.0,96,0.00,,,0.00,TxWx,2013-09-11 19:12:00,
2013-09-11 15:13:00,74.0,73.0,29.93,North,0,1.0,3.0,96,0.00,,,0.00,TxWx,2013-09-11 19:13:00,
2013-09-11 15:14:00,74.0,73.0,29.93,NNE,22,1.0,2.0,96,0.00,,,0.00,TxWx,2013-09-11 19:14:00,
2013-09-11 15:15:00,74.0,73.0,29.93,NW,315,1.0,1.0,96,0.00,,,0.00,TxWx,2013-09-11 19:15:00,
2013-09-11 15:16:00,97.0,81.0,29.94,NNW,337,6.0,7.0,61,0.00,,,0.00,TxWx,2013-09-11 19:16:00,
2013-09-11 15:18:00,74.0,73.0,29.93,NNW,337,2.0,2.0,96,0.00,,,0.00,TxWx,2013-09-11 19:18:00,
2013-09-11 15:20:00,74.0,73.0,29.93,North,0,1.0,2.0,96,0.00,,,0.00,TxWx,2013-09-11 19:20:00,
2013-09-11 15:21:00,97.0,81.0,29.94,NNW,337,5.0,5.0,61,0.00,,,0.00,TxWx,2013-09-11 19:21:00,
2013-09-11 15:22:00,74.0,73.0,29.93,NW,315,1.0,2.0,96,0.00,,,0.00,TxWx,2013-09-11 19:22:00,
2013-09-11 15:23:00,74.0,73.0,29.92,NW,315,1.0,2.0,96,0.00,,,0.00,TxWx,2013-09-11 19:23:00,
2013-09-11 15:24:00,74.0,73.0,29.92,NNW,337,1.0,1.0,96,0.00,,,0.00,TxWx,2013-09-11 19:24:00,
2013-09-11 15:25:00,74.0,73.0,29.92,NNW,337,1.0,1.0,96,0.00,,,0.00,TxWx,2013-09-11 19:25:00,
2013-09-11 15:26:00,97.0,81.0,29.94,NNE,22,4.0,5.0,61,0.00,,,0.00,TxWx,2013-09-11 19:26:00,
2013-09-11 15:27:00,74.0,73.0,29.92,North,0,1.0,1.0,96,0.00,,,0.00,TxWx,2013-09-11 19:27:00,
2013-09-11 15:29:00,74.0,73.0,29.92,NNE,22,1.0,1.0,96,0.00,,,0.00,TxWx,2013-09-11 19:29:00,
2013-09-11 15:30:00,74.0,73.0,29.92,North,0,2.0,2.0,96,0.00,,,0.00,TxWx,2013-09-11 19:30:00,
2013-09-11 15:31:00,97.0,81.0,29.94,North,0,3.0,3.0,62,0.00,,,0.00,TxWx,2013-09-11 19:31:00,
2013-09-11 15:32:00,74.0,73.0,29.92,NNW,337,2.0,2.0,96,0.00,,,0.00,TxWx,2013-09-11 19:32:00,
2013-09-11 15:34:00,74.0,73.0,29.92,North,0,1.0,1.0,97,0.00,,,0.00,TxWx,2013-09-11 19:34:00,
2013-09-11 15:36:00,74.0,73.0,29.92,WNW,292,1.0,1.0,97,0.00,,,0.00,TxWx,2013-09-11 19:36:00,
2013-09-11 15:37:00,97.0,82.0,29.93,NW,315,3.0,4.0,62,0.00,,,0.00,TxWx,2013-09-11 19:37:00,
2013-09-11 15:38:00,74.0,73.0,29.92,North,0,2.0,2.0,97,0.00,,,0.00,TxWx,2013-09-11 19:38:00,
2013-09-11 15:39:00,74.0,73.0,29.92,North,0,1.0,1.0,97,0.00,,,0.00,TxWx,2013-09-11 19:39:00,
2013-09-11 15:40:00,74.0,73.0,29.92,North,0,1.0,1.0,97,0.00,,,0.00,TxWx,2013-09-11 19:40:00,
2013-09-11 15:41:00,74.0,73.0,29.92,WNW,292,1.0,1.0,97,0.00,,,0.00,TxWx,2013-09-11 19:41:00,
2013-09-11 15:42:00,96.0,81.0,29.93,North,0,6.0,6.0,62,0.00,,,0.00,TxWx,2013-09-11 19:42:00,
2013-09-11 15:43:00,74.0,73.0,29.92,NNW,337,1.0,1.0,97,0.00,,,0.00,TxWx,2013-09-11 19:43:00,
2013-09-11 15:45:00,74.0,73.0,29.92,NE,45,2.0,2.0,97,0.00,,,0.00,TxWx,2013-09-11 19:45:00,
2013-09-11 15:47:00,95.0,80.0,29.93,North,0,4.0,5.0,62,0.00,,,0.00,TxWx,2013-09-11 19:47:00,
2013-09-11 15:52:00,95.0,80.0,29.93,NW,315,1.0,2.0,63,0.00,,,0.00,TxWx,2013-09-11 19:52:00,
2013-09-11 15:57:00,94.0,80.0,29.93,North,0,2.0,3.0,64,0.00,,,0.00,TxWx,2013-09-11 19:57:00,
2013-09-11 16:02:00,94.0,80.0,29.93,North,0,4.0,4.0,64,0.00,,,0.00,TxWx,2013-09-11 20:02:00,
2013-09-11 16:07:00,94.0,80.0,29.92,NNW,337,3.0,3.0,64,0.00,,,0.00,TxWx,2013-09-11 20:07:00,
2013-09-11 16:13:00,94.0,80.0,29.92,SW,225,3.0,3.0,65,0.00,,,0.00,TxWx,2013-09-11 20:13:00,
2013-09-11 16:18:00,94.0,80.0,29.92,NNE,22,3.0,3.0,65,0.00,,,0.00,TxWx,2013-09-11 20:18:00,
2013-09-11 16:23:00,94.0,80.0,29.91,North,0,4.0,5.0,65,0.00,,,0.00,TxWx,2013-09-11 20:23:00,
2013-09-11 16:28:00,94.0,81.0,29.91,North,0,3.0,4.0,66,0.00,,,0.00,TxWx,2013-09-11 20:28:00,
2013-09-11 16:33:00,94.0,81.0,29.91,North,0,3.0,4.0,66,0.00,,,0.00,TxWx,2013-09-11 20:33:00,
2013-09-11 16:38:00,94.0,81.0,29.91,NNW,337,3.0,4.0,66,0.00,,,0.00,TxWx,2013-09-11 20:38:00,
2013-09-11 16:43:00,94.0,81.0,29.91,NNW,337,2.0,3.0,66,0.00,,,0.00,TxWx,2013-09-11 20:43:00,
2013-09-11 16:48:00,94.0,81.0,29.91,NNW,337,5.0,8.0,66,0.00,,,0.00,TxWx,2013-09-11 20:48:00,
2013-09-11 16:53:00,94.0,81.0,29.91,NNW,337,2.0,3.0,66,0.00,,,0.00,TxWx,2013-09-11 20:53:00,
2013-09-11 16:59:00,94.0,80.0,29.91,WNW,292,3.0,3.0,65,0.00,,,0.00,TxWx,2013-09-11 20:59:00,
2013-09-11 17:04:00,93.0,79.0,29.91,NNW,337,3.0,3.0,65,0.00,,,0.00,TxWx,2013-09-11 21:04:00,
2013-09-11 17:09:00,93.0,79.0,29.92,North,0,1.0,3.0,65,0.00,,,0.00,TxWx,2013-09-11 21:09:00,
2013-09-11 17:14:00,93.0,79.0,29.92,NNW,337,2.0,3.0,65,0.00,,,0.00,TxWx,2013-09-11 21:14:00,
2013-09-11 17:19:00,92.0,79.0,29.91,NNW,337,3.0,3.0,66,0.00,,,0.00,TxWx,2013-09-11 21:19:00,
2013-09-11 17:24:00,92.0,79.0,29.91,NNW,337,1.0,2.0,66,0.00,,,0.00,TxWx,2013-09-11 21:24:00,
2013-09-11 17:29:00,92.0,79.0,29.91,NNE,22,1.0,1.0,67,0.00,,,0.00,TxWx,2013-09-11 21:29:00,
2013-09-11 17:34:00,92.0,79.0,29.91,North,0,3.0,3.0,67,0.00,,,0.00,TxWx,2013-09-11 21:34:00,
2013-09-11 17:40:00,92.0,80.0,29.91,North,0,3.0,3.0,68,0.00,,,0.00,TxWx,2013-09-11 21:40:00,
2013-09-11 17:45:00,91.0,79.0,29.92,NNW,337,2.0,2.0,68,0.00,,,0.00,TxWx,2013-09-11 21:45:00,
2013-09-11 17:50:00,91.0,79.0,29.92,NNW,337,1.0,3.0,69,0.00,,,0.00,TxWx,2013-09-11 21:50:00,
2013-09-11 17:55:00,91.0,79.0,29.92,NNE,22,1.0,2.0,69,0.00,,,0.00,TxWx,2013-09-11 21:55:00,
2013-09-11 18:00:00,91.0,79.0,29.92,NNE,22,1.0,2.0,69,0.00,,,0.00,TxWx,2013-09-11 22:00:00,
2013-09-11 18:05:00,91.0,80.0,29.93,NW,315,1.0,1.0,70,0.00,,,0.00,TxWx,2013-09-11 22:05:00,
2013-09-11 18:10:00,91.0,80.0,29.93,North,0,1.0,2.0,70,0.00,,,0.00,TxWx,2013-09-11 22:10:00,
2013-09-11 18:15:00,91.0,80.0,29.92,North,0,1.0,2.0,71,0.00,,,0.00,TxWx,2013-09-11 22:15:00,
2013-09-11 18:21:00,90.0,79.0,29.93,North,0,1.0,2.0,71,0.00,,,0.00,TxWx,2013-09-11 22:21:00,
2013-09-11 18:26:00,90.0,79.0,29.93,NW,315,1.0,2.0,72,0.00,,,0.00,TxWx,2013-09-11 22:26:00,
2013-09-11 18:31:00,90.0,80.0,29.94,North,0,4.0,5.0,72,0.00,,,0.00,TxWx,2013-09-11 22:31:00,
2013-09-11 18:36:00,90.0,80.0,29.94,North,0,2.0,3.0,72,0.00,,,0.00,TxWx,2013-09-11 22:36:00,
2013-09-11 18:41:00,90.0,80.0,29.94,North,0,1.0,3.0,72,0.00,,,0.00,TxWx,2013-09-11 22:41:00,
2013-09-11 18:46:00,90.0,80.0,29.94,ENE,67,3.0,4.0,72,0.00,,,0.00,TxWx,2013-09-11 22:46:00,
2013-09-11 18:51:00,90.0,80.0,29.94,North,0,1.0,2.0,73,0.00,,,0.00,TxWx,2013-09-11 22:51:00,
2013-09-11 18:56:00,90.0,80.0,29.94,ENE,67,1.0,1.0,73,0.00,,,0.00,TxWx,2013-09-11 22:56:00,
2013-09-11 19:01:00,89.0,79.0,29.97,SE,135,5.0,10.0,72,0.00,,,0.00,TxWx,2013-09-11 23:01:00,
2013-09-11 19:06:00,88.0,73.0,29.96,NNE,22,6.0,13.0,62,0.00,,,0.00,TxWx,2013-09-11 23:06:00,
2013-09-11 19:12:00,87.0,73.0,29.96,NNW,337,3.0,3.0,63,0.00,,,0.00,TxWx,2013-09-11 23:12:00,
2013-09-11 19:17:00,85.0,71.0,29.96,ENE,67,5.0,5.0,63,0.00,,,0.00,TxWx,2013-09-11 23:17:00,
2013-09-11 19:22:00,85.0,72.0,29.96,ENE,67,7.0,8.0,65,0.00,,,0.00,TxWx,2013-09-11 23:22:00,
2013-09-11 19:27:00,84.0,71.0,29.97,East,90,10.0,11.0,65,0.00,,,0.00,TxWx,2013-09-11 23:27:00,
2013-09-11 19:32:00,83.0,70.0,29.97,SE,135,4.0,6.0,66,0.00,,,0.00,TxWx,2013-09-11 23:32:00,
2013-09-11 19:37:00,83.0,70.0,29.98,SW,225,6.0,6.0,66,0.00,,,0.00,TxWx,2013-09-11 23:37:00,
2013-09-11 19:42:00,83.0,71.0,29.98,South,180,5.0,11.0,67,0.00,,,0.00,TxWx,2013-09-11 23:42:00,
2013-09-11 19:48:00,82.0,70.0,29.98,SSE,157,6.0,9.0,67,0.00,,,0.00,TxWx,2013-09-11 23:48:00,
2013-09-11 19:53:00,82.0,70.0,29.98,East,90,7.0,8.0,67,0.00,,,0.00,TxWx,2013-09-11 23:53:00,
2013-09-11 19:58:00,82.0,70.0,29.99,NNE,22,4.0,6.0,68,0.00,,,0.00,TxWx,2013-09-11 23:58:00,
2013-09-11 20:03:00,82.0,71.0,30.01,ENE,67,10.0,10.0,69,0.00,,,0.00,TxWx,2013-09-12 00:03:00,
2013-09-11 20:08:00,80.0,71.0,30.01,ENE,67,9.0,11.0,75,0.00,,,0.03,TxWx,2013-09-12 00:08:00,
2013-09-11 20:13:00,78.0,71.0,30.00,SSE,157,7.0,10.0,79,0.60,,,0.06,TxWx,2013-09-12 00:13:00,
2013-09-11 20:18:00,78.0,71.0,30.02,NE,45,5.0,5.0,81,0.60,,,0.09,TxWx,2013-09-12 00:18:00,
2013-09-11 20:24:00,78.0,72.0,30.01,NW,315,1.0,2.0,81,0.60,,,0.12,TxWx,2013-09-12 00:24:00,
2013-09-11 20:29:00,77.0,71.0,30.00,NW,315,4.0,4.0,82,0.60,,,0.14,TxWx,2013-09-12 00:29:00,
2013-09-11 20:34:00,77.0,71.0,30.02,NW,315,4.0,5.0,83,0.60,,,0.16,TxWx,2013-09-12 00:34:00,
2013-09-11 20:39:00,76.0,71.0,30.02,West,270,6.0,6.0,84,0.60,,,0.18,TxWx,2013-09-12 00:39:00,
2013-09-11 20:44:00,76.0,71.0,30.02,South,180,5.0,7.0,84,0.60,,,0.20,TxWx,2013-09-12 00:44:00,
2013-09-11 20:49:00,76.0,71.0,30.01,South,180,2.0,3.0,86,0.60,,,0.22,TxWx,2013-09-12 00:49:00,
2013-09-11 20:54:00,76.0,72.0,30.00,East,90,8.0,10.0,87,0.60,,,0.23,TxWx,2013-09-12 00:54:00,
2013-09-11 21:00:00,76.0,72.0,29.99,SSW,202,5.0,7.0,89,0.60,,,0.25,TxWx,2013-09-12 01:00:00,
2013-09-11 21:05:00,76.0,73.0,29.98,SW,225,4.0,5.0,90,0.60,,,0.26,TxWx,2013-09-12 01:05:00,
2013-09-11 21:10:00,76.0,73.0,29.98,SW,225,4.0,4.0,90,0.60,,,0.27,TxWx,2013-09-12 01:10:00,
2013-09-11 21:15:00,75.0,72.0,29.98,WNW,292,5.0,6.0,90,0.60,,,0.28,TxWx,2013-09-12 01:15:00,
2013-09-11 21:20:00,75.0,72.0,29.97,South,180,4.0,6.0,90,0.60,,,0.29,TxWx,2013-09-12 01:20:00,
2013-09-11 21:25:00,75.0,72.0,29.98,WSW,247,2.0,4.0,90,0.60,,,0.30,TxWx,2013-09-12 01:25:00,
2013-09-11 21:30:00,75.0,72.0,29.99,SW,225,2.0,2.0,91,0.60,,,0.31,TxWx,2013-09-12 01:30:00,
2013-09-11 21:35:00,75.0,72.0,29.98,SW,225,3.0,5.0,91,0.60,,,0.32,TxWx,2013-09-12 01:35:00,
2013-09-11 21:41:00,75.0,72.0,29.99,SSW,202,2.0,3.0,91,0.60,,,0.33,TxWx,2013-09-12 01:41:00,
2013-09-11 21:46:00,75.0,72.0,29.98,South,180,2.0,2.0,92,0.60,,,0.34,TxWx,2013-09-12 01:46:00,
2013-09-11 21:51:00,75.0,72.0,29.98,South,180,1.0,1.0,92,0.60,,,0.34,TxWx,2013-09-12 01:51:00,
2013-09-11 21:56:00,75.0,73.0,29.97,SW,225,3.0,3.0,92,0.60,,,0.35,TxWx,2013-09-12 01:56:00,
2013-09-11 22:01:00,75.0,73.0,29.99,ENE,67,2.0,2.0,92,0.60,,,0.36,TxWx,2013-09-12 02:01:00,
2013-09-11 22:06:00,75.0,73.0,30.00,NE,45,1.0,1.0,92,0.60,,,0.36,TxWx,2013-09-12 02:06:00,
2013-09-11 22:11:00,75.0,73.0,30.00,ENE,67,1.0,1.0,93,0.60,,,0.37,TxWx,2013-09-12 02:11:00,
2013-09-11 22:17:00,74.0,72.0,29.99,NW,315,1.0,2.0,93,0.60,,,0.37,TxWx,2013-09-12 02:17:00,
2013-09-11 22:22:00,74.0,72.0,30.00,North,0,2.0,3.0,93,0.60,,,0.38,TxWx,2013-09-12 02:22:00,
2013-09-11 22:27:00,74.0,72.0,30.00,East,90,2.0,3.0,93,0.60,,,0.38,TxWx,2013-09-12 02:27:00,
2013-09-11 22:32:00,74.0,72.0,30.00,NE,45,3.0,3.0,94,0.60,,,0.39,TxWx,2013-09-12 02:32:00,
2013-09-11 22:37:00,74.0,72.0,30.00,NE,45,1.0,2.0,94,0.60,,,0.39,TxWx,2013-09-12 02:37:00,
2013-09-11 22:42:00,74.0,72.0,30.00,North,0,3.0,3.0,94,0.60,,,0.40,TxWx,2013-09-12 02:42:00,
2013-09-11 22:47:00,74.0,72.0,29.99,NNW,337,1.0,1.0,94,0.60,,,0.40,TxWx,2013-09-12 02:47:00,
2013-09-11 22:52:00,74.0,72.0,29.98,North,0,1.0,1.0,94,0.00,,,0.41,TxWx,2013-09-12 02:52:00,
2013-09-11 22:58:00,74.0,72.0,29.97,WSW,247,1.0,2.0,94,0.00,,,0.41,TxWx,2013-09-12 02:58:00,
2013-09-11 23:03:00,74.0,72.0,29.96,NNW,337,1.0,1.0,94,0.60,,,0.41,TxWx,2013-09-12 03:03:00,
2013-09-11 23:08:00,74.0,72.0,29.97,North,0,2.0,2.0,95,0.60,,,0.42,TxWx,2013-09-12 03:08:00,
2013-09-11 23:13:00,74.0,72.0,29.97,NNE,22,1.0,1.0,95,0.60,,,0.42,TxWx,2013-09-12 03:13:00,
2013-09-11 23:18:00,74.0,72.0,29.97,NNE,22,2.0,2.0,95,0.60,,,0.42,TxWx,2013-09-12 03:18:00,
2013-09-11 23:23:00,74.0,72.0,29.97,WNW,292,1.0,2.0,95,0.00,,,0.42,TxWx,2013-09-12 03:23:00,
2013-09-11 23:28:00,74.0,72.0,29.95,SW,225,1.0,1.0,95,0.00,,,0.42,TxWx,2013-09-12 03:28:00,
2013-09-11 23:34:00,74.0,72.0,29.94,SSW,202,1.0,1.0,95,0.00,,,0.42,TxWx,2013-09-12 03:34:00,
2013-09-11 23:39:00,74.0,72.0,29.93,WNW,292,1.0,1.0,95,0.00,,,0.42,TxWx,2013-09-12 03:39:00,
2013-09-11 23:44:00,74.0,73.0,29.94,East,90,1.0,3.0,96,0.00,,,0.42,TxWx,2013-09-12 03:44:00,
2013-09-11 23:49:00,74.0,72.0,29.94,North,0,1.0,1.0,95,0.00,,,0.42,TxWx,2013-09-12 03:49:00,
2013-09-11 23:55:00,74.0,73.0,29.94,NNE,22,1.0,2.0,96,0.60,,,0.43,TxWx,2013-09-12 03:55:00,